NIMBUS 2 DEB, 28618

Orbit data source: Space-Track

NIMBUS 2 DEB, 28618 is space debris in SSO originally from a launch on Sun, 15 May 1966 UTC launched from the Air Force Western Test Range (AFWTR). Debris objects in space refer to the collection of defunct objects orbiting the Earth. Examples of debris include non-operational satellites, rocket bodies, and fragments generated from explosions, collisions, or faulty payload assembly.

Loading next visibility...
Identifier
28618, 1966-040AH
Orbit
SSO
Last TLE update
1 day ago
Origin
Manufacturer
Unknown
Mission
Spacecraft
Bus & Motor
Unknown
Mass
Unknown
Launch date (UTC)
1966-05-15 (59 years ago)
Launch vehicle
Unknown
Launch site
Air Force Western Test Range (AFWTR)
Object type
Payload
Rocket body
Debris
Shape & HBR
Unknown
Radar Cross Section
Small (<0.1 m²)

Expand to show TLE details & history

TLE from 1 day ago
0 NIMBUS 2 DEB
1 28618U 66040AH  25128.18559119  .00007780  00000-0  60118-2 0  9998
2 28618 100.2987 265.3470 0043811 109.9797  14.7449 13.92645547593002
Epoch: 2025-05-08T04:27Z
Definitive object data (Epoch: 2025-05-08T04:27:15.078Z)
Latitude
53.94374°
Longitude
166.64974°
Altitude
897.225 km
Speed
7.424 km/s
True Right ascension
06h 38m 53s
True Declination
53° 46' 59"
Sunlit
Object was in daylight at TLE epoch
Visualization TLE readout
Latitude
-23.6363°
Longitude
-22.02445°
Altitude
948.981 km
Speed
7.366 km/s
Apparent Right ascension
20h 59m 14s
Apparent Declination
-47° 30' 31"
Sunlit
Object is in full shadow
Visualization observer readout
Local Sidereal Time
13:45:10
Azimuth
123.746° SE
Elevation
-39.62°
Doppler factor
1
Orbital elements
Apogee altitude
948.61 km
Perigee altitude
884.692 km
Semi-major axis
7,294.788 km
Eccentricity
0.0043811
Inclination
100.2987°
RAAN
265.347°
Arg. of periapsis
109.9797°
True anomaly
14.87336°
Mean anomaly
14.7449°
Eccentric anomaly
14.80906°
Mean motion
3.48357 °/min
BSTAR
0.0060118
Orbital period
103.34 mins
Loading maneuver chart data...
Loading SW <> Apogee altitude chart data...
Loading historical data...
Loading historical data...
Loading historical data...
Loading historical data...
Loading historical data...
Loading historical data...
Loading historical data...

NIMBUS 2 DEB Visibility forecast

Observer location: undefined°, undefined°

Span
Click to sort rows by Start time (UTC) header in descending order
Start Az.
Max El. time (UTC)
Max El. Az.
Max El.
End time (UTC)
End Az.
7 mins2025-05-09 07:36:28.758Z102.675° ESE2025-05-09 07:40:28.758Z57° ENE18.571°2025-05-09 07:43:28.758Z21.774° NNE
9 mins2025-05-09 09:17:28.758Z179.26° S2025-05-09 09:21:28.758Z245.579° WSW41.565°2025-05-09 09:26:28.758Z335.746° NNW
9 mins2025-05-09 21:50:28.758Z26.089° NE2025-05-09 21:54:28.758Z102.752° ESE41.934°2025-05-09 21:59:28.758Z183.802° SSW
6 mins2025-05-09 23:33:28.758Z330.523° NNW2025-05-09 23:35:28.758Z305.932° NW17.916°2025-05-09 23:39:28.758Z259.314° W
|